Terminal Aerodrome Forecast
Issued by NWS

Home | Current Version | Previous Version | Text Only | Print | Product List | Glossary On
Versions: 1 2 3 4 5 6 7 8 9 10 11 12 13 14 15 16 17 18 19 20 21
000
FTPA31 PHFO 240500
TAFJRF
TAF
PHJR 240540Z 2406/2506 07008G15KT P6SM FEW045
     FM240800 07011KT P6SM FEW025 SCT040
     FM242000 08013G22KT P6SM FEW045=

USA.gov is the U.S. government's official web portal to all federal, state and local government web resources and services.